Regional Weather Roundup
Issued by NWS

Home | Current Version | Previous Version | Graphics & Text | Print | Product List | Glossary On
Versions: 1 2 3 4 5 6 7 8 9 10 11 12 13 14 15 16 17 18 19 20 21 22 23 24 25 26 27 28 29 30 31 32 33 34 35 36 37 38 39 40 41 42 43 44 45 46 47 48 49 50
000
ASUS43 KMKX 242221
RWRWI

WISCONSIN REGIONAL WEATHER ROUNDUP
NATIONAL WEATHER SERVICE MILWAUKEE/SULLIVAN WI
500 PM CDT SUN JUL 24 2016

NOTE: "FAIR" INDICATES FEW OR NO CLOUDS BELOW 12,000 FEET WITH NO
SIGNIFICANT WEATHER AND/OR OBSTRUCTIONS TO VISIBILITY.

WIZ001-002-006>008-014>016-023>028-242300-
NORTHWEST WISCONSIN

CITY           SKY/WX    TMP DP  RH WIND       PRES   REMARKS
SUPERIOR ARPT  MOSUNNY   80  62  53 W14G20    29.84R HX  82
ASHLAND        SUNNY     84  62  47 W14G22    29.82R HX  85
HAYWARD        SUNNY     81  60  48 W8        29.87R HX  82
SIREN          SUNNY     81  59  47 NW16      29.90R HX  81
CUMBERLAND     SUNNY     79  59  50 W17G23    29.91R HX  80
RICE LAKE      SUNNY     80  62  55 W12       29.92R HX  81
CHETEK         SUNNY     82  63  53 W10G16    29.90R HX  83
LADYSMITH      PTSUNNY   82  63  53 W13       29.90R HX  83
EAU CLAIRE     SUNNY     84  63  49 W14       29.89R HX  85
MENOMONIE      SUNNY     84  62  47 W17       29.91R HX  85
NEW RICHMOND   SUNNY     82  60  46 W14       29.93R HX  83
OSCEOLA        MOSUNNY   82  61  48 W14G21    29.95R HX  82
$$

WIZ003>005-009-010-017-018-242300-
NORTH CENTRAL WISCONSIN

CITY           SKY/WX    TMP DP  RH WIND       PRES   REMARKS
MANITOWISH WTR MOSUNNY   80  64  58 W8        29.83S HX  81
ARBOR VITAE    SUNNY     82  64  54 W12G17    29.84S HX  84
WOODRUFF       SUNNY     82  64  54 W12G17    29.84S HX  84
RHINELANDER    MOSUNNY   82  64  54 W8        29.84F HX  83
EAGLE RIVER    MOSUNNY   81  60  48 W10       29.83S HX  81
LAND O LAKES   MOSUNNY   83  60  45 W9        29.83F HX  83
PHILLIPS       PTSUNNY   80  64  57 W10       29.86R HX  82
TOMAHAWK       MOSUNNY   82  63  53 W10       29.85R HX  83
MEDFORD        MOSUNNY   80  65  58 W14       29.87R HX  82
MERRILL        MOSUNNY   83  66  54 W14       29.84F HX  85
$$

WIZ029-030-035-036-043>047-242300-
CENTRAL WISCONSIN

CITY           SKY/WX    TMP DP  RH WIND       PRES   REMARKS
WAUSAU         MOSUNNY   84  63  49 W16G22    29.83S HX  85
MOSINEE        MOSUNNY   82  64  54 W15G21    29.86R HX  84
MARSHFIELD     SUNNY     85  66  53 W15G21    29.86S HX  87
STEVENS POINT  SUNNY     83  63  51 W12G18    29.84F HX  84
WAUPACA        SUNNY     89  67  48 W13       29.81F HX  91
WAUTOMA        SUNNY     87  71  58 W12       29.83R HX  93
WISC RAPIDS    SUNNY     87  63  44 NW9       29.86S HX  88
CAMP DOUGLAS   SUNNY     85  70  60 W12       29.85S HX  89
$$

WIZ011>013-019>022-031-037>040-048>050-242300-
NORTHEAST WISCONSIN

CITY           SKY/WX    TMP DP  RH WIND       PRES   REMARKS
ANTIGO         MOSUNNY   82  65  56 W14       29.84S HX  83
SHAWANO        MOSUNNY   87  72  60 W9        29.79S HX  94
OCONTO         MOSUNNY   85  80  83 W9        29.76F HX  99
STURGEON BAY   CLOUDY    80  75  84 S7        29.79S HX  85
GREEN BAY      SUNNY     86  76  71 W13       29.79S HX  96
MANITOWOC      CLOUDY    84  76  76 SW5       29.79F HX  93
APPLETON       MOSUNNY   86  72  62 W13       29.80S HX  92
CLINTONVILLE   MOSUNNY   86  68  54 W14       29.80S HX  89
OSHKOSH        MOSUNNY   89  73  59 W12       29.80S HX  97
$$

WIZ032>034-041-042-053>061-242300-
SOUTHWEST WISCONSIN

CITY           SKY/WX    TMP DP  RH WIND       PRES   REMARKS
LA CROSSE      SUNNY     88  65  46 W15       29.88R HX  90
SPARTA         SUNNY     86  64  47 W13G18    29.88R HX  87
VIROQUA        SUNNY     82  65  56 W5        29.91R HX  83
BOSCOBEL       MOSUNNY   87  68  52 W7        29.88R HX  90
PRAIRIE DU CHI MOSUNNY   85  65  50 W7        29.88R HX  87
PLATTEVILLE    MOSUNNY   87  79  76 W7        29.89R HX 100
$$

WIZ056-057-062-063-064-067-068-242300-
SOUTH CENTRAL WISCONSIN

CITY           SKY/WX    TMP DP  RH WIND       PRES   REMARKS
REEDSBURG      SUNNY     87  66  50 W14       29.86R HX  89
BARABOO/DELLS  SUNNY     87  69  54 W10       29.86R HX  90
LONE ROCK      CLOUDY    88  72  58 W13       29.86R HX  94
MINERAL POINT  CLOUDY    88  77  70 W10G17    29.89R HX 100
MADISON        PTSUNNY   88  76  67 W7        29.83S HX  99
MIDDLETON      MOSUNNY   90  75  62 W13       29.85S HX 100
WATERTOWN      SUNNY     89  79  72 W7        29.83S HX 103
MONROE         SUNNY     86  77  74 W14       29.86S HX  97
JANESVILLE     PTSUNNY   91  79  66 W7        29.84S HX 107
$$

WIZ051-052-058>065-066-070>072-242300-
SOUTHEAST WISCONSIN

CITY           SKY/WX    TMP DP  RH WIND       PRES   REMARKS
MILWAUKEE      CLOUDY    92  76  59 S12       29.81S HX 104
WAUKESHA       NOT AVBL
MILWAUKEE/TIMM MOSUNNY   91  73  55 SW14      29.82  HX 100
RACINE         CLOUDY    85  70  60 S7        29.84S HX  89
BURLINGTON     MOSUNNY   91  78  65 SW13G18   29.84R HX 106
KENOSHA        CLOUDY    92  79  65 SW12      29.85S HX 108
FOND DU LAC    SUNNY     90  75  61 W9G18     29.81S HX 100
SHEBOYGAN      CLOUDY    89  78  70 W15G21    29.80R HX 103
WEST BEND      MOSUNNY   90  75  62 W12       29.82R HX 100
JUNEAU         SUNNY     87  76  70 SW13      29.84S HX  98
$$

LSZ147-162-242300-
LAKE SUPERIOR

STATION/POSITION TIME  TEMP    WIND        PRES    WAVE
                       AIR SEA DIR/SP/G            HT/PER
                 (UTC) (F)     (DEG/KT/KT) (MB)    (FT/S)
W MID LAKE BUOY  2150   65 58  250/ 14/ 16 1006.8R   2/ 4
DEVILS ISLAND    2200   70     250/ 19/ 21 1008.2S
PORT WING        1940   77     250/ 12/ 18 1009.5
SAXON HARBOR     2100   81     290/  9/ 15 1008.8
$$

LMZ867-665-643>646-242300-
LAKE MICHIGAN

STATION/POSITION TIME  TEMP    WIND        PRES    WAVE
                       AIR SEA DIR/SP/G            HT/PER
                 (UTC) (F)     (DEG/KT/KT) (MB)    (FT/S)
CHAMBERS ISLAND  2100   76     200/  5/ 15 1008.1R
S GREEN BAY BUOY 2200   78 75  170/  4/  6   N/A
N MID LAKE BUOY  2150   70 68  220/ 16/ 17 1007.4F   4/ 6
NORTHPORT PIER   2100   77     190/  1/  3 1008.1S
KEWAUNEE LAKESHO 2100   62     170/  8/ 12 1008.2F
SHEBOYGAN LAKESH 2200   71     170/ 12/ 14 1008.9R
PORT WASHINGTON  2100   69     140/  2/  4 1009.5
MILWAUKEE LAKESH 2210   90     250/ 13/ 16   N/A
S MID LAKE BUOY  2150   77 72  190/ 14/ 14 1009.2R   3/ 4
KENOSHA   LAKESH 2200   76     170/  7/ 15 1009.8F
$$

TC  - TEMPERATURE IN CELSIUS
VSB - VISIBILITY IN STATUTE MILES
WCI - WIND CHILL INDEX
HX  - HEAT INDEX





USA.gov is the U.S. government's official web portal to all federal, state and local government web resources and services.